Midland, MI

3:29 AM EDT on May 30, 2017 (GMT -0400)
Barstow

Weather History for KIKW - July, 2013

Change the Weather History Date:

Monday, July 15, 2013

  Actual Average (KMBS) Record (KMBS)
Temperature  
Mean Temperature 80 °F -  
Max Temperature 91 °F 80 °F 94 °F (1998)
Min Temperature 68 °F 58 °F 52 °F (2007)
Cooling Degree Days 14    
Growing Degree Days 30 (Base 50)    
Moisture  
Dew Point 71 °F    
Average Humidity 74    
Maximum Humidity 98    
Minimum Humidity 49    
Precipitation  
Precipitation 0.00 in - - ()
Sea Level Pressure  
Sea Level Pressure 30.27 in    
Wind  
Wind Speed 1 mph (ENE)    
Max Wind Speed 6 mph    
Max Gust Speed -    
Visibility 10 miles    
Events      
Averages and records for this station are not official NWS values.
T = Trace of Precipitation, MM = Missing Value Source: NWS Daily Summary

Daily Weather History Graph

Daily Weather History Graph

Search for Another Location

Airport or City:

Trip Planner

Search our weather history database for the weather conditions in past years. The results will help you decide how hot, cold, wet, or windy it might be!

Date:

Astronomy

Jul. 15, 2013 Rise Set
Actual Time 6:09 AM EDT 9:16 PM EDT
Civil Twilight 5:34 AM EDT 9:50 PM EDT
Nautical Twilight 4:50 AM EDT 10:34 PM EDT
Astronomical Twilight 3:56 AM EDT 11:28 PM EDT
Moon 1:44 PM EDT (7/15) 12:13 AM EDT (7/15)
Length of Visible Light 16h 15m
Length of Day
15h 06m
Waxing Crescent, 45% of the Moon is Illuminated
Jul 15
Waxing Crescent
Jul 15
First Quarter
Jul 22
Full
Jul 29
Last Quarter
Aug 6
New

Hourly Weather History & Observations

Time (EDT) Temp. Heat Index Dew Point Humidity Pressure Visibility Wind Dir Wind Speed Gust Speed Precip Events Conditions
12:14 AM 71.1 °F - 69.8 °F 96% 30.26 in 10.0 mi North - - N/A   Clear
12:35 AM 70.3 °F - 69.3 °F 96% 30.26 in 10.0 mi Calm Calm - N/A   Clear
12:54 AM 70.7 °F - 69.4 °F 96% 30.26 in 10.0 mi Calm Calm - N/A   Clear
1:13 AM 71.2 °F - 69.8 °F 95% 30.26 in 10.0 mi Calm Calm - N/A   Clear
1:34 AM 70.7 °F - 69.1 °F 95% 30.26 in 10.0 mi Calm Calm - N/A   Mostly Cloudy
1:54 AM 72.1 °F - 70.3 °F 94% 30.26 in 10.0 mi Calm Calm - N/A   Overcast
2:13 AM 71.8 °F - 69.8 °F 93% 30.26 in 10.0 mi Calm Calm - N/A   Mostly Cloudy
2:34 AM 71.8 °F - 70.0 °F 94% 30.26 in 10.0 mi North - - N/A   Mostly Cloudy
2:53 AM 72.3 °F - 69.8 °F 92% 30.26 in 10.0 mi Calm Calm - N/A   Scattered Clouds
3:13 AM 74.7 °F - 70.5 °F 87% 30.26 in 10.0 mi SSE 3.5 mph - N/A   Clear
3:34 AM 72.7 °F - 69.1 °F 88% 30.27 in 10.0 mi Calm Calm - N/A   Clear
3:53 AM 72.0 °F - 69.6 °F 92% 30.27 in 10.0 mi Calm Calm - N/A   Clear
4:13 AM 70.7 °F - 68.7 °F 93% 30.27 in 10.0 mi Calm Calm - N/A   Clear
4:34 AM 70.2 °F - 68.9 °F 96% 30.27 in 7.0 mi North - - N/A   Clear
4:53 AM 70.3 °F - 69.3 °F 96% 30.27 in 10.0 mi North - - N/A   Clear
5:13 AM 70.0 °F - 68.7 °F 96% 30.27 in 10.0 mi North - - N/A   Clear
5:34 AM 69.8 °F - 68.9 °F 97% 30.28 in 7.0 mi North - - N/A   Clear
5:53 AM 68.9 °F - 68.0 °F 97% 30.28 in 7.0 mi Calm Calm - N/A   Clear
6:14 AM 68.5 °F - 68.0 °F 98% 30.29 in 2.5 mi Calm Calm - N/A   Clear
6:34 AM 68.9 °F - 68.4 °F 98% 30.29 in 3.0 mi Calm Calm - N/A   Clear
6:53 AM 69.4 °F - 68.9 °F 98% 30.30 in 3.0 mi Calm Calm - N/A   Mostly Cloudy
7:14 AM 70.9 °F - 70.0 °F 97% 30.30 in 5.0 mi Calm Calm - N/A   Overcast
7:34 AM 72.5 °F - 70.7 °F 94% 30.30 in 7.0 mi Calm Calm - N/A   Scattered Clouds
7:53 AM 73.6 °F - 71.2 °F 92% 30.30 in 10.0 mi Calm Calm - N/A   Mostly Cloudy
8:14 AM 74.3 °F - 71.2 °F 90% 30.30 in 10.0 mi Calm Calm - N/A   Mostly Cloudy
8:33 AM 76.5 °F - 71.8 °F 85% 30.31 in 10.0 mi Calm Calm - N/A   Scattered Clouds
8:54 AM 78.1 °F - 71.6 °F 80% 30.31 in 10.0 mi Calm Calm - N/A   Clear
9:13 AM 79.5 °F - 71.1 °F 75% 30.30 in 10.0 mi Calm Calm - N/A   Clear
9:34 AM 81.1 °F 85.2 °F 71.2 °F 72% 30.30 in 10.0 mi Calm Calm - N/A   Clear
9:54 AM 82.6 °F 87.1 °F 71.1 °F 68% 30.30 in 10.0 mi Calm Calm - N/A   Clear
10:13 AM 83.7 °F 89.2 °F 72.0 °F 68% 30.30 in 10.0 mi Calm Calm - N/A   Clear
10:34 AM 85.3 °F 90.8 °F 71.6 °F 63% 30.30 in 10.0 mi Calm Calm - N/A   Clear
10:54 AM 85.1 °F 90.8 °F 71.6 °F 64% 30.30 in 10.0 mi Calm Calm - N/A   Clear
11:13 AM 86.7 °F 92.5 °F 71.4 °F 60% 30.30 in 10.0 mi Calm Calm - N/A   Clear
11:34 AM 87.1 °F 93.2 °F 71.8 °F 60% 30.30 in 10.0 mi South 3.5 mph - N/A   Clear
11:54 AM 87.4 °F 92.7 °F 70.3 °F 57% 30.30 in 10.0 mi Calm Calm - N/A   Clear
12:13 PM 88.2 °F 93.3 °F 70.0 °F 55% 30.29 in 10.0 mi Calm Calm - N/A   Clear
12:34 PM 87.4 °F 92.3 °F 70.0 °F 56% 30.29 in 10.0 mi Calm Calm - N/A   Clear
12:54 PM 87.4 °F 91.5 °F 68.9 °F 54% 30.29 in 10.0 mi Calm Calm - N/A   Scattered Clouds
1:13 PM 88.5 °F 94.0 °F 70.3 °F 55% 30.29 in 10.0 mi ENE 4.6 mph - N/A   Scattered Clouds
1:34 PM 86.2 °F 92.6 °F 72.1 °F 63% 30.29 in 10.0 mi NNE 3.5 mph - N/A   Mostly Cloudy
1:54 PM 87.1 °F 92.0 °F 70.2 °F 57% 30.28 in 10.0 mi Calm Calm - N/A   Overcast
2:14 PM 89.8 °F 96.5 °F 71.6 °F 55% 30.28 in 10.0 mi ENE 4.6 mph - N/A   Scattered Clouds
2:34 PM 90.7 °F 96.9 °F 71.1 °F 52% 30.27 in 10.0 mi ENE 5.8 mph - N/A   Scattered Clouds
2:54 PM 89.4 °F 95.3 °F 70.9 °F 54% 30.27 in 10.0 mi ENE 4.6 mph - N/A   Scattered Clouds
3:14 PM 87.8 °F 94.7 °F 72.1 °F 60% 30.27 in 10.0 mi Calm Calm - N/A   Mostly Cloudy
3:33 PM 88.0 °F 94.7 °F 71.8 °F 59% 30.27 in 10.0 mi East 4.6 mph - N/A   Overcast
3:54 PM 89.6 °F 96.2 °F 71.6 °F 55% 30.27 in 10.0 mi ENE 3.5 mph - N/A   Mostly Cloudy
4:14 PM 89.4 °F 95.8 °F 71.4 °F 55% 30.26 in 10.0 mi Calm Calm - N/A   Mostly Cloudy
4:33 PM 91.0 °F 97.6 °F 71.4 °F 52% 30.25 in 10.0 mi Calm Calm - N/A   Mostly Cloudy
4:54 PM 91.2 °F 97.5 °F 70.7 °F 51% 30.25 in 10.0 mi Calm Calm - N/A   Scattered Clouds
5:14 PM 91.4 °F 96.8 °F 70.0 °F 49% 30.25 in 10.0 mi Calm Calm - N/A   Clear
5:33 PM 91.6 °F 98.2 °F 70.9 °F 51% 30.25 in 10.0 mi WNW 3.5 mph - N/A   Clear
5:54 PM 91.4 °F 97.3 °F 70.2 °F 50% 30.24 in 10.0 mi NNW 3.5 mph - N/A   Clear
6:14 PM 91.4 °F 96.8 °F 70.0 °F 49% 30.24 in 10.0 mi Calm Calm - N/A   Clear
6:34 PM 91.4 °F 97.3 °F 70.3 °F 50% 30.24 in 10.0 mi Calm Calm - N/A   Clear
6:54 PM 91.4 °F 97.3 °F 70.3 °F 50% 30.24 in 10.0 mi Calm Calm - N/A   Scattered Clouds
7:14 PM 90.1 °F 96.3 °F 71.1 °F 53% 30.24 in 10.0 mi Calm Calm - N/A   Scattered Clouds
7:34 PM 89.8 °F 96.5 °F 71.6 °F 55% 30.24 in 10.0 mi Calm Calm - N/A   Clear
7:54 PM 88.5 °F 98.3 °F 75.0 °F 64% 30.24 in 10.0 mi Calm Calm - N/A   Clear
8:13 PM 87.1 °F 94.9 °F 73.4 °F 64% 30.24 in 10.0 mi Calm Calm - N/A   Clear
8:34 PM 85.8 °F 93.0 °F 73.2 °F 66% 30.24 in 10.0 mi NE 3.5 mph - N/A   Clear
8:54 PM 84.2 °F 90.9 °F 73.6 °F 70% 30.22 in 10.0 mi ENE 3.5 mph - N/A   Clear
9:14 PM 81.9 °F 87.5 °F 73.6 °F 76% 30.23 in 10.0 mi Calm Calm - N/A   Clear
9:34 PM 80.8 °F 85.6 °F 73.4 °F 78% 30.24 in 10.0 mi Calm Calm - N/A   Clear
9:54 PM 80.6 °F 84.7 °F 72.1 °F 75% 30.25 in 10.0 mi North - - N/A   Clear
10:14 PM 79.0 °F - 72.0 °F 79% 30.26 in 10.0 mi Calm Calm - N/A   Clear
10:34 PM 79.0 °F - 72.0 °F 79% 30.26 in 10.0 mi Calm Calm - N/A   Clear
10:54 PM 77.5 °F - 72.5 °F 84% 30.26 in 10.0 mi Calm Calm - N/A   Clear
11:14 PM 75.6 °F - 73.0 °F 92% 30.26 in 10.0 mi Calm Calm - N/A   Clear
11:34 PM 76.8 °F - 73.6 °F 90% 30.26 in 10.0 mi South 5.8 mph - N/A   Clear
11:54 PM 80.8 °F 85.8 °F 73.8 °F 79% 30.26 in 10.0 mi South 4.6 mph - N/A   Clear